Location: Krishnamma Banjar
(17.2175°N, 80.5166°E)
Time: 03:48:59
(UTC+00:00)

NOSS 3-3 (C) - Pass Details

Date: 03 August 2024
Orbit: 734 x 1480 km, 63.4° (Epoch: 09 September)

Event Time Altitude Azimuth Distance (km) Brightness Sun altitude
Exits shadow 23:41:01 - 218° (SW) 2,451 5.6 -9.2°
Reaches altitude 10° 23:41:36 10° 220° (SW) 2,227 5.4 -9.1°
Maximum altitude 23:46:28 53° 297° (WNW) 923 3.7 -8.0°
Drops below altitude 10° 23:51:41 10° 14° (NNE) 2,389 6.6 -6.9°
Sets 23:54:19 0° 19° (NNE) 3,406 7.5 -6.3°
